[Iaude] MPEC L109: 2016 RN100 [a=39.66,e=0.18,i=6.1,H=8.74]
    mpec at cfa.harvard.edu 
    mpec at cfa.harvard.edu
       
    Mon Jun 10 17:31:15 EDT 2024
    
    
  
M.P.E.C. 2024-L109                                Issued 2024 June 10, 21:29 UT
     The Minor Planet Electronic Circulars contain information on unusual
         minor planets, routine data on comets and natural satellites,
         and occasional editorial announcements.  They are published
    on behalf of Division F of the International Astronomical Union by the
          Minor Planet Center, Smithsonian Astrophysical Observatory,
                          Cambridge, MA 02138, U.S.A.
			  
             Prepared using the Tamkin Foundation Computer Network
                              MPC at CFA.HARVARD.EDU
            URL https://www.minorplanetcenter.net/    ISSN 1523-6714
                                   2016 RN100                                   
Additional Observations:
     K16RA0N 1C2016 07 07.60843923 32 27.43 +01 46 54.9                WEL109T09
     K16RA0N 1C2017 06 24.52546623 36 22.26 +02 15 41.5                WEL109T09
     K16RA0N 1C2017 06 24.59878423 36 22.25 +02 15 42.0                WEL109T09
     K16RA0N 1C2019 09 27.36608523 39 31.00 +02 52 57.5                WEL109T09
     K16RA0N 1C2019 09 27.47214423 39 30.56 +02 52 54.8                WEL109T09
Observer details:
T09 Subaru Telescope, Maunakea.  Observer .  Measurer S. Deen.  8.3-m Subaru
    Telescope + CCD.
Orbital elements:
2016 RN100                                                                      
Epoch 2024 Mar. 31.0 TT = JDT 2460400.5                 Alexandersen            
M 219.94971              (2000.0)            P               Q                  
n   0.00394596     Peri.  204.78192     -0.88624869     -0.45560320             
a  39.6613323      Node   307.85467     +0.44068535     -0.77371244             
e   0.1754661      Incl.    6.07790     +0.14268734     -0.44022128             
P 250              H    8.74          G   0.15           U   7                  
Residuals in seconds of arc
160707 T09  0.1+  0.1-    160905 T09  0.1-  0.1+    160907 T09  0.1+  0.1-
160801 T09  0.2-  0.1-    160905 T09  0.1-  0.0     170624 T09  0.1-  0.1+
160801 T09  0.2+  0.2+    160905 T09  0.1+  0.0     170624 T09  0.0   0.1+
160801 T09  0.1-  0.1-    160905 T09  0.1+  0.1+    190927 T09  0.0   0.1-
160801 T09  0.2+  0.1-    160907 T09  0.0   0.0     190927 T09  0.1+  0.1+
160905 T09  0.1-  0.1+    160907 T09  0.0   0.0
160905 T09  0.1+  0.1+    160907 T09  0.1-  0.2-
Ephemeris:
2016 RN100               a,e,i = 39.66, 0.18, 6                  q = 32.7021
Date    TT    R. A. (2000) Decl.     Delta      r    Elong.  Phase     V
2024 05 11    00 01 33.1 +05 26 20  46.0696 45.4016    48.1     0.9    25.5
...
2024 05 26    00 02 21.3 +05 33 09  45.8606 45.3981    62.3     1.1    25.5
...
2024 06 03    00 02 40.7 +05 36 12  45.7363 45.3962    69.8     1.2    25.5
...
2024 06 09    00 02 52.2 +05 38 11  45.6387 45.3948    75.5     1.2    25.5
2024 06 10    00 02 53.8 +05 38 30  45.6221 45.3945    76.4     1.2    25.5
2024 06 11    00 02 55.4 +05 38 48  45.6055 45.3943    77.4     1.3    25.5
...
2024 06 17    00 03 03.1 +05 40 24  45.5048 45.3928    83.0     1.3    25.5
...
2024 06 25    00 03 09.1 +05 42 06  45.3688 45.3909    90.6     1.3    25.5
...
2024 07 10    00 03 06.5 +05 43 47  45.1161 45.3874   104.9     1.2    25.5
M. P. C. Staff               (C) Copyright 2024 MPC           M.P.E.C. 2024-L109
    
    
More information about the Iaude
mailing list